EW3099 Weather Reports


time (UTC)temp
C
wind
direction
speed
KPH
gust
KPH
rain 1hr
cm
rain 24hr
cm
rain mn
cm
humidity
%
barometer
mb
20260510213023 18 72 0.0 4.8 0.00 0.51 0.00 44 1011.1
20260510211522 18 165 0.0 0.0 0.00 0.64 0.00 43 1010.9
20260510210009 18 165 0.0 0.0 0.00 0.64 0.00 45 1010.7
20260510204509 18 129 0.0 0.0 0.00 0.64 0.00 46 1010.6
20260510203007 18 128 0.0 0.0 0.00 0.64 0.00 42 1010.5
20260510201507 20 141 0.0 3.2 0.00 0.79 0.00 40 1010.5
20260510200019 20 135 0.0 0.0 0.00 0.79 0.00 36 1010.5
20260510194504 20 28 0.0 0.0 0.00 0.79 0.00 38 1010.7
20260510193012 18 146 0.0 0.0 0.00 0.79 0.00 45 1010.7
20260510191502 17 146 0.0 0.0 0.00 1.07 0.00 46 1011.0
20260510190044 17 145 0.0 0.0 0.00 1.07 0.00 47 1011.1
20260510184544 18 149 0.0 0.0 0.00 1.07 0.00 45 1011.1
20260510183041 18 149 0.0 0.0 0.00 1.07 0.00 42 1011.1
20260510181528 19 144 0.0 0.0 0.00 1.07 0.00 38 1011.0
20260510180007 20 147 0.0 0.0 0.00 1.07 0.00 36 1011.0
20260510174504 19 165 0.0 1.6 0.00 1.07 0.00 37 1011.2
20260510173048 18 72 0.0 1.6 0.00 1.07 0.00 35 1011.4
20260510171543 18 1 0.0 4.8 0.00 1.07 0.00 32 1011.3
20260510170016 16 122 0.0 3.2 0.00 1.07 0.00 30 1011.1
20260510164514 16 124 0.0 3.2 0.00 1.07 0.00 33 1011.5
20260510163052 15 132 0.0 0.0 0.00 1.07 0.00 35 1011.7
20260510161549 14 50 0.0 0.0 0.00 1.07 0.00 37 1011.5
20260510160037 14 131 0.0 0.0 0.00 1.07 0.00 40 1011.6
20260510154540 13 70 0.0 0.0 0.00 1.07 0.00 42 1011.5
20260510153038 13 27 0.0 0.0 0.00 1.07 0.00 42 1011.8
20260510151528 13 50 0.0 0.0 0.00 1.07 0.00 43 1012.1
20260510150026 12 49 0.0 0.0 0.00 1.07 0.00 43 1012.0
20260510144529 12 53 0.0 0.0 0.00 1.07 0.00 44 1011.9
20260510143031 12 7 0.0 0.0 0.00 1.07 0.00 44 1011.7
20260510141518 12 8 0.0 0.0 0.00 1.07 0.00 45 1011.5
20260510140059 12 342 0.0 0.0 0.00 1.07 0.00 45 1011.4
20260510134606 11 209 0.0 0.0 0.00 1.07 0.00 45 1011.4
20260510133049 11 209 0.0 0.0 0.00 1.07 0.00 45 1011.3
20260510131538 11 209 0.0 0.0 0.00 1.09 0.00 45 1011.1
20260510130019 11 209 0.0 0.0 0.00 1.09 0.00 45 1011.3
20260510124517 11 209 0.0 0.0 0.00 1.09 0.00 45 1011.1
20260510123109 11 209 0.0 0.0 0.00 1.09 0.00 45 1010.9
20260510121555 11 209 0.0 0.0 0.00 1.09 0.00 45 1010.9
20260510120036 10 209 0.0 0.0 0.00 1.09 0.00 45 1010.9
20260510114535 10 264 0.0 0.0 0.00 1.09 0.00 45 1010.6
20260510113022 10 264 0.0 0.0 0.00 1.09 0.00 45 1010.3
20260510111519 10 264 0.0 0.0 0.00 1.09 0.00 45 1010.2
20260510110020 10 264 0.0 0.0 0.00 1.09 0.00 45 1010.4
20260510104517 10 264 0.0 0.0 0.00 1.09 0.00 45 1010.2
20260510103017 10 264 0.0 1.6 0.00 1.09 0.00 45 1010.1
20260510101517 10 264 0.0 0.0 0.00 1.09 0.00 45 1010.1
20260510100016 10 264 0.0 1.6 0.00 1.09 0.00 45 1010.0
20260510094515 10 270 0.0 0.0 0.00 1.09 0.00 45 1010.3
20260510093057 10 270 0.0 0.0 0.00 1.09 0.00 45 1010.4
20260510091600 10 270 0.0 0.0 0.00 1.09 0.00 45 1010.3
20260510090040 10 269 0.0 0.0 0.00 1.09 0.00 45 1010.4
20260510084539 10 269 0.0 0.0 0.00 1.09 0.00 45 1010.5
20260510083027 10 270 0.0 1.6 0.00 1.09 0.00 45 1010.6
20260510081532 10 349 0.0 3.2 0.00 1.09 0.00 45 1010.4
20260510080024 10 160 0.0 0.0 0.00 1.09 0.00 45 1009.7
20260510074524 10 160 0.0 0.0 0.00 1.09 0.00 45 1009.6
20260510073031 10 160 0.0 0.0 0.00 1.09 0.00 45 1009.6
20260510071524 10 160 0.0 0.0 0.00 1.09 0.00 45 1009.7
20260510070021 10 160 0.0 0.0 0.00 1.09 0.00 45 1009.7
20260510064521 10 160 0.0 0.0 0.00 1.09 0.00 45 1009.8
20260510063003 10 160 0.0 0.0 0.00 1.09 0.00 45 1009.8
20260510061502 10 160 0.0 0.0 0.00 1.09 0.00 45 1009.6
20260510060044 10 160 0.0 0.0 0.00 1.09 0.00 45 1009.4
20260510054544 10 160 0.0 0.0 0.00 1.09 0.00 45 1009.6
20260510053026 10 160 0.0 0.0 0.00 1.09 0.00 45 1009.6
20260510051529 10 160 0.0 0.0 0.00 1.09 0.00 45 1009.7
20260510050007 10 160 0.0 0.0 0.00 1.09 0.00 45 1009.8
20260510044508 10 160 0.0 0.0 0.00 1.09 0.00 45 1009.8
20260510043104 10 160 0.0 0.0 0.00 1.09 0.00 45 1009.8
20260510041549 10 160 0.0 0.0 0.00 1.09 1.09 45 1009.6
20260510040030 10 160 0.0 0.0 0.00 1.09 1.09 45 1009.4
20260510034533 10 160 0.0 0.0 0.00 1.09 1.09 45 1009.4
20260510033011 10 160 0.0 0.0 0.00 1.09 1.09 45 1009.3
20260510031516 10 160 0.0 0.0 0.00 1.09 1.09 45 1009.4
20260510030050 11 160 0.0 0.0 0.00 1.09 1.09 45 1009.6
20260510024550 11 160 0.0 0.0 0.00 1.09 1.09 45 1009.7
20260510023039 10 160 0.0 0.0 0.00 1.09 1.09 45 1009.6
20260510021540 10 160 0.0 0.0 0.00 1.09 1.09 45 1009.6
20260510020037 10 160 0.0 0.0 0.00 1.09 1.09 44 1009.5
20260510014537 11 160 0.0 0.0 0.00 1.09 1.09 44 1009.5
20260510013036 11 160 0.0 0.0 0.00 1.09 1.09 44 1009.4
20260510011536 11 160 0.0 0.0 0.00 1.09 1.09 44 1009.1
20260510010035 11 160 0.0 0.0 0.00 1.09 1.09 44 1008.9
20260510004535 11 160 0.0 0.0 0.00 1.09 1.09 44 1008.9
20260510003035 11 160 0.0 0.0 0.00 1.09 1.09 44 1008.9
20260510001516 11 160 0.0 0.0 0.00 1.09 1.09 44 1008.7
20260510000018 11 160 0.0 0.0 0.03 1.09 1.09 44 1008.7
20260509234600 11 160 0.0 0.0 0.05 1.09 1.09 44 1008.9
20260509233056 11 159 0.0 0.0 0.13 1.09 1.09 44 1008.9
20260509231537 11 160 0.0 0.0 0.23 1.09 1.09 44 1009.0
20260509230037 12 70 0.0 0.0 0.36 1.07 1.07 44 1009.2
20260509224519 12 40 0.0 0.0 0.36 1.04 1.04 43 1008.8
20260509223022 12 351 0.0 0.0 0.33 0.97 0.97 43 1009.4
20260509221507 12 351 0.0 0.0 0.28 0.86 0.86 43 1009.5
20260509220005 12 350 0.0 0.0 0.15 0.71 0.71 43 1009.8